sat.trackr.live / text

‹ back to catalog

UNKNOWN

NORAD 81812

UNKNOWN UNKNOWN UNKNOWN

§ Identity

Operator
Country
Launch date
Launch site
Launch vehicle
Mass (kg)
RCS (m²)

External: N2YO · Heavens-Above

§ Orbital elements

Epoch: 2026-09-17T07:45:47.827008Z

Period
116.19 min
Inclination
103.7000°
Eccentricity
0.0275749
Mean motion
12.39332134 rev/d
Perigee alt
1,291.9 km
Apogee alt
1,726.9 km
Semi-major
7,887.6 km
B*
3.9715e-2
RAAN
212.4915°
Arg perigee
109.7992°
Mean anomaly
253.3014°
Rev number
57,505

§ Raw data

UNKNOWN1 81812U          26260.32347022  .00005950  00000+0  39715-1 0  99932 81812 103.7000 212.4915 0275749 109.7992 253.3014 12.39332134575059

JSON: /api/v1/satellites/81812 · /tle

For live sub-satellite position, see the globe view (requires WebGL).

§ Visibility from observer

Set your observer location to see the next 7 days of passes ≥ 10°. The values pass through the URL so the page stays shareable.

No JS? Fill the form by hand. The geolocation button needs JavaScript.